Location: ???????
(55.7897°N, 38.6903°E)
Time: 11:11:27
(UTC+00:00)

Daily predictions for brighter satellites

Satellite Brightness Start Highest point End
(mag) Time Altitude Azimuth Time Altitude Azimuth Time Altitude Azimuth
Cosmos 1980 Rocket 3.4 19:07:04 10° NNW 19:12:23 37° NE 19:17:40 10° ESE
USA 234 3.5 19:08:13 10° SE 19:14:42 61° SSW 19:21:13 10° WNW
Helios 1A Rocket 3.9 19:11:20 10° S 19:15:11 42° W 19:19:07 10° NNW
Cosmos 1455 2.6 19:12:51 10° NNW 19:16:36 59° W 19:20:21 10° S
Cosmos 1697 Rocket 3.2 19:11:08 10° NNW 19:16:43 57° NE 19:22:15 10° SE
Cosmos 1703 4.0 19:17:09 10° SSE 19:20:43 37° E 19:24:18 10° NNE
Cosmos 1536 Rocket 3.8 19:17:14 10° S 19:21:26 52° E 19:25:40 10° NNE
Meteor 1-24 Rocket 3.8 19:17:28 10° SSW 19:22:47 81° WNW 19:28:16 10° NNE
Cosmos 2184 Rocket 4.0 19:18:05 10° N 19:24:18 87° E 19:30:29 10° S
Cosmos 1606 Rocket 4.1 19:21:13 10° N 19:25:26 47° ENE 19:29:36 10° SSE
Cosmos 1624 Rocket 4.0 19:20:32 10° SSW 19:25:46 78° ESE 19:31:00 10° NNE
Lacrosse 4 Rocket 2.9 19:23:37 10° WSW 19:27:31 41° NW 19:31:24 10° NNE
SPOT 5 3.9 19:23:45 10° SSW 19:27:52 35° W 19:31:53 10° NNW
Cosmos 1975 Rocket 4.0 19:23:37 10° SSW 19:27:58 50° WNW 19:32:18 10° N
CZ-2C R/B 3.9 19:29:24 10° NNE 19:34:06 82° WNW 19:38:40 10° SSW
Cosmos 2228 3.0 19:30:51 10° N 19:35:08 80° ENE 19:39:22 10° SSE
SJ 16-02 4.1 19:33:41 10° N 19:35:34 12° NNE 19:37:27 10° ENE
Cosmos 1656 3.8 19:34:24 10° NW 19:39:49 66° WSW 19:45:16 10° SSE
Meteor 2-1 Rocket 4.3 19:34:30 10° NNW 19:40:03 72° ENE 19:45:33 10° SSE
RESURS DK-1 2.4 19:36:28 10° NW 19:40:37 87° NE 19:44:46 10° SE
Cosmos 2322 Rocket 4.4 19:37:01 10° NNW 19:41:33 23° NNE 19:46:03 10° ENE
Cosmos 2360 4.4 19:37:00 10° NNW 19:42:46 77° NE 19:48:31 10° SE
Lacrosse 5 rocket 2.9 19:42:48 10° W 19:45:39 20° SW 19:48:36 10° S
Cosmos 2056 Rocket 3.8 19:40:21 10° SSW 19:45:45 80° WNW 19:51:14 10° NNE
Cosmos 1741 Rocket 4.1 19:40:42 10° NNW 19:46:02 78° WSW 19:51:17 10° SSE
Cosmos 2344 4.2 19:38:08 10° NW 19:46:29 88° SW 19:57:56 10° SE
ERS-1 Rocket 4.5 19:46:24 10° SSW 19:50:50 30° W 19:55:17 10° NNW
Cosmos 1833 Rocket 3.6 19:46:10 10° SSE 19:50:58 30° ESE 19:55:48 10° NE
Cosmos 1726 Rocket 3.7 19:47:14 10° N 19:51:33 63° ENE 19:55:39 11° SSE
Lacrosse 5 2.8 19:48:13 10° WNW 19:52:47 33° SW 19:57:08 11° SSE
Cosmos 1420 Rocket 4.2 19:51:44 10° SSW 19:57:00 79° WNW 20:02:20 10° NNE
ALOS 2 3.4 19:52:55 10° SE 19:57:04 42° ENE 20:01:14 10° N
Cosmos 2084 Rocket 3.5 19:57:46 10° NW 20:01:37 68° NNE 20:05:35 10° ESE
SL-8 R/B 4.4 19:57:55 10° WSW 20:02:15 34° S 20:06:35 10° ESE
Cosmos 968 Rocket 3.9 19:57:43 10° NNW 20:02:51 60° ENE 20:08:00 10° SE
Cosmos 2084 3.3 19:59:45 10° SSW 20:03:31 55° SE 20:07:21 10° ENE
Cosmos 2082 Rocket 3.8 20:03:19 10° SE 20:07:17 20° E 20:11:15 10° ENE
Terra 3.7 20:09:08 10° SW 20:12:58 24° W 20:16:49 10° NW
ARIANE 5 R/B 4.3 20:10:23 10° SSW 20:14:10 26° W 20:17:56 10° NW
Cosmos 1900 4.5 20:10:31 10° NW 20:15:43 77° SW 20:20:43 11° SE
Cosmos 2058 Rocket 3.2 20:12:47 10° N 20:17:10 68° ENE 20:21:05 13° SSE
FALCON 9 DEB 3.2 20:15:17 10° WSW 20:18:28 48° S 20:21:39 10° E
USA 267 3.2 20:14:16 10° ENE 20:20:48 66° SSE 20:27:19 10° SW
Cosmos 2360 Rocket 4.2 20:18:45 10° NNW 20:23:32 27° NNE 20:28:19 10° E
SAR-Lupe-4 4.0 20:21:49 10° N 20:25:21 59° WNW 20:28:53 10° SSW
GP-B 3.1 20:21:07 10° N 20:25:35 89° ENE 20:29:38 12° S
Cosmos 1869 4.0 20:24:30 10° N 20:28:13 43° ENE 20:31:35 12° SE
USA 276 3.5 20:27:48 16° S 20:28:34 17° SSE 20:30:34 10° ESE
Cosmos 1892 Rocket 3.7 20:25:12 13° S 20:29:06 63° E 20:33:28 10° NNE
ADEOS Rocket 3.6 20:28:53 12° SSE 20:35:37 84° ENE 20:43:20 10° NNW
COSMOS 2406 3.9 20:31:18 13° S 20:36:04 39° ESE 20:41:23 10° NE
Spot 4 4.1 20:32:50 13° S 20:37:03 65° WSW 20:41:50 10° NNW
Cosmos 1867 3.7 20:32:14 10° NW 20:37:46 85° NE 20:43:14 10° SE
ASTEX 1 3.8 20:34:58 10° N 20:39:56 65° WNW 20:44:53 10° SSW
Cosmos 2369 3.8 20:35:03 10° NW 20:40:47 75° WSW 20:46:00 13° SSE
Nadezhda 1 Rocket 4.3 20:35:09 10° SSW 20:41:14 66° WNW 20:47:18 10° N
Cosmos 1408 2.6 20:39:06 15° S 20:41:45 59° E 20:45:10 10° NNE
TSX-5 4.5 20:38:47 10° SW 20:43:24 85° SE 20:49:28 10° NE
Cosmos 1331 Rocket 4.1 20:39:07 10° SSW 20:44:24 73° ESE 20:49:43 10° NNE
Meteor 1-11 4.3 20:40:03 13° S 20:45:09 69° E 20:50:43 10° NNE
SL-16 R/B 3.2 20:39:48 10° NNW 20:45:17 46° NE 20:50:45 10° ESE
Cosmos 1626 Rocket 4.4 20:44:15 14° SSE 20:47:35 37° E 20:51:36 10° NNE
Cosmos 1452 Rocket 3.7 20:42:20 10° SW 20:47:36 73° WNW 20:52:53 10° NNE
Okean 1-7 Rocket 4.2 20:46:16 14° SSE 20:49:46 45° E 20:54:03 10° NNE
Cosmos-2242 4.0 20:47:48 10° N 20:51:50 39° ENE 20:55:46 10° SE
Cosmos 724 4.3 20:46:21 10° SW 20:52:11 86° NW 20:58:02 10° NE
H-2A R/B 3.6 20:49:09 10° NNE 20:53:21 67° ESE 20:56:51 14° S
Cosmos 1607 4.4 20:48:02 10° WSW 20:54:14 66° NW 21:00:24 10° NE
Cosmos 1825 2.9 20:51:38 15° SSE 20:54:22 41° E 20:57:56 10° NNE
Cosmos 1606 4.2 20:52:30 10° N 20:55:54 29° ENE 20:59:18 10° SE
ATLAS 2AS CENTAUR R/B 4.4 20:51:25 10° WNW 20:56:02 19° WSW 21:00:28 10° SSW
Cosmos 1980 Rocket 2.3 20:51:07 10° NW 20:56:48 66° WSW 21:01:47 13° SSE
Cosmos 1328 4.4 20:53:35 10° SSW 20:57:32 53° WNW 21:01:30 10° N
USA 234 4.4 20:54:06 13° S 20:58:39 26° SW 21:03:59 10° WNW
Cosmos 1697 Rocket 3.5 20:55:23 10° NW 21:00:31 37° WSW 21:04:56 13° S
Cosmos 1110 Rocket 4.1 20:58:18 10° SSW 21:03:35 81° WNW 21:08:56 10° NNE
Cosmos 2219 Rocket 4.4 21:01:16 10° NNW 21:05:58 26° NNE 21:10:42 10° E
ERS-2 2.6 21:04:31 10° NNE 21:08:01 47° ESE 21:10:36 17° S
Cosmos 1302 Rocket 4.2 21:03:41 13° S 21:08:10 60° ESE 21:13:19 10° NNE
SL-8 Rocket 4.4 21:08:00 10° NNW 21:14:07 56° W 21:19:35 13° SSW
SJ 16-02 2.5 21:11:07 10° NNW 21:15:22 42° NE 21:19:35 10° SE
In-Cosmos 22 Rocket 4.2 21:11:09 14° S 21:16:05 80° ESE 21:21:37 10° NNE
Cosmos 1892 2.8 21:14:07 14° SSW 21:17:15 69° WNW 21:21:02 10° N
RESURS DK-1 4.4 21:15:29 10° WNW 21:18:03 16° WSW 21:20:36 10° SW
BREEZE-M DEB (TANK) 4.4 21:10:42 10° SW 21:18:17 29° S 21:21:25 10° ESE
Cosmos 2333 Rocket 3.9 21:13:15 10° NNW 21:18:27 33° NE 21:23:40 10° E
Cosmos 2218 Rocket 4.4 21:13:27 10° NNW 21:19:45 60° W 21:25:20 13° S
Geosat 4.1 21:18:18 10° SE 21:23:21 82° NE 21:28:25 10° NNW
Cosmos 2278 3.8 21:21:00 10° NW 21:26:42 65° WSW 21:31:48 13° SSE
Aureole 1 Rocket 4.3 21:20:26 10° NNW 21:26:45 84° WSW 21:34:34 10° SSE
Cosmos 2322 Rocket 2.7 21:21:07 10° NNW 21:26:45 60° NE 21:32:22 10° SE
Cosmos 2366 rocket 4.5 21:21:52 10° NNW 21:27:58 54° W 21:33:28 13° SSW
CZ-2D R/B 4.4 21:28:12 10° ENE 21:30:24 13° E 21:32:36 10° ESE
Cosmos 1758 Rocket 4.0 21:29:59 15° SSE 21:33:23 52° E 21:37:39 10° NNE
ALOS 2 3.8 21:30:06 13° SSW 21:33:31 31° W 21:37:29 10° NNW
Cosmos 1833 Rocket 3.0 21:28:56 10° SW 21:34:32 68° NW 21:40:11 10° NNE
SL-16 R/B 4.2 21:29:13 10° ESE 21:34:38 32° NE 21:40:03 10° N
Cosmos 2058 4.2 21:34:11 12° SSE 21:37:34 32° E 21:41:21 10° NNE
Cosmos 1812 Rocket 3.7 21:35:35 10° NNW 21:40:03 68° W 21:43:39 15° S
Cosmos 2084 Rocket 4.3 21:37:26 10° WNW 21:40:46 28° SW 21:43:08 16° S
Cosmos 2221 3.7 21:44:11 10° N 21:48:15 39° ENE 21:52:20 10° SE
Resurs 1-4 Rocket 4.1 21:45:39 10° NE 21:49:17 18° E 21:52:56 10° SE
Cosmos 2082 Rocket 2.2 21:45:07 11° SSW 21:50:35 83° ESE 21:56:20 10° NE
ATLAS 5 CENTAUR R/B 2.9 21:49:33 14° SSE 21:51:43 21° ESE 21:54:57 10° ENE
SL-19 R/B 4.1 21:51:26 15° SSE 21:54:17 82° WSW 21:58:19 10° NNW
FALCON 9 DEB 3.3 21:51:21 10° W 21:54:30 44° SSW 21:57:38 10° ESE
Cosmos 2237 4.3 21:49:31 10° NW 21:55:19 84° NE 22:01:03 10° SE
Meteor 2-2 Rocket 4.5 21:52:11 10° NNW 21:58:10 83° ENE 22:04:05 11° SSE
Cosmos 1602 Rocket 3.6 21:55:07 15° SSW 21:58:42 75° WNW 22:03:04 10° N
Cosmos 1633 2.5 21:57:32 16° SSW 22:00:14 76° WNW 22:03:44 10° N
USA 276 2.9 22:00:45 10° WSW 22:03:16 26° S 22:05:46 10° ESE
USA 267 3.4 21:57:28 10° ENE 22:04:02 84° N 22:10:37 10° W
COSMOS 2428 4.4 22:01:20 10° NNW 22:06:37 36° NE 22:11:52 10° ESE
Cosmos 1934 Rocket 4.0 22:01:27 10° NNW 22:07:34 90° E 22:13:26 11° S
Cosmos 2360 Rocket 2.4 22:02:46 10° NNW 22:08:30 74° NE 22:14:10 10° SE
Cosmos 1238 4.2 22:12:40 16° SSW 22:14:56 75° WNW 22:18:04 10° N
COSMOS 2406 3.8 22:14:34 10° SW 22:20:16 56° NW 22:25:57 10° NNE
Cosmos 1953 Rocket 3.9 22:18:01 13° S 22:21:56 61° E 22:26:21 10° NNE
Cosmos 1354 Rocket 4.3 22:18:55 10° NW 22:24:06 53° WSW 22:28:58 11° S
BREEZE-M DEB (TANK) 4.4 22:24:50 14° S 22:27:00 24° SE 22:32:56 10° E
Cosmos 1992 Rocket 4.1 22:23:25 11° SW 22:28:27 75° WNW 22:33:44 10° NNE
Cosmos-2242 4.2 22:25:32 10° NNW 22:29:16 30° W 22:32:34 12° SSW
SL-16 R/B 2.5 22:24:03 10° NW 22:29:31 49° WSW 22:34:57 10° S
Cosmos 1825 3.9 22:26:48 10° WSW 22:29:53 24° WNW 22:33:00 10° N
Cosmos 1606 3.7 22:28:02 10° NNW 22:31:32 34° W 22:34:28 13° SSW
ADEOS II 3.9 22:32:27 10° NE 22:36:39 23° E 22:40:49 10° SE
Cosmos 1825 Rocket 3.6 22:33:22 13° SSW 22:37:10 70° WNW 22:41:31 10° N
Cosmos 1340 Rocket 2.9 22:34:26 13° S 22:37:52 70° E 22:41:49 10° NNE
Cosmos 1980 Rocket 4.1 22:36:40 10° WNW 22:39:46 15° W 22:42:51 10° SW
ERS-2 4.0 22:38:18 10° N 22:41:08 22° WNW 22:43:57 10° WSW
Cosmos 1605 Rocket 4.1 22:34:54 10° NNW 22:41:19 83° W 22:47:44 10° S
Nadezhda 3 Rocket 4.4 22:38:37 11° SSW 22:44:29 56° WNW 22:50:33 10° N
MOZ.5/SAFIR/RUBIN 5/SL-8 3.9 22:40:25 10° S 22:45:04 63° WSW 22:49:49 10° NNW
Cosmos 1842 Rocket 3.6 22:42:44 10° NNW 22:47:16 85° W 22:51:45 10° S
Meteor 2-3 Rocket 4.4 22:43:05 10° SSE 22:48:26 48° E 22:53:48 10° NNE
Cosmos 990 Rocket 4.4 22:44:23 10° NNW 22:49:33 66° ENE 22:54:40 10° SE
Cosmos 2219 Rocket 2.5 22:45:13 10° NNW 22:50:54 71° NE 22:56:35 10° SE
SJ 16-02 2.2 22:49:51 10° NW 22:53:51 34° WSW 22:57:37 11° SSW
SL-24 DEB 4.4 22:50:47 10° SSE 22:55:20 72° E 22:59:57 10° N
Cosmos 1076 Rocket 4.2 22:52:03 10° S 22:56:17 51° E 23:00:32 10° NNE
Cosmos 1782 3.0 22:52:56 10° N 22:56:58 73° ENE 23:00:56 10° SSE
Cosmos 972 Rocket 4.2 22:53:00 10° NNW 22:57:51 55° WSW 23:02:59 10° S
Cosmos 2333 Rocket 2.2 22:57:33 10° NW 23:03:21 80° WSW 23:09:07 10° SSE
Meteor 1-28 Rocket 4.0 23:01:57 10° SE 23:05:30 50° ENE 23:09:07 10° N
COSMOS 2487 4.5 23:03:48 10° SE 23:05:50 16° ESE 23:07:52 10° ENE
Cosmos 1898 Rocket 4.0 23:01:13 10° NNW 23:06:24 63° ENE 23:11:32 10° SE
Cosmos 2322 Rocket 2.9 23:05:29 10° NW 23:10:36 35° WSW 23:15:42 10° S
CZ-2D R/B 2.4 23:06:20 10° NNE 23:11:32 63° ESE 23:16:42 10° S
COSMOS 2455 4.1 23:07:07 10° NW 23:12:57 47° NNE 23:18:46 10° ESE
YAOGAN 11 4.4 23:08:45 10° SSE 23:13:19 79° ENE 23:17:52 10° NNW
Cosmos 2058 4.0 23:10:31 10° SW 23:14:24 36° WNW 23:18:19 10° N
Cosmos 1151 Rocket 4.3 23:13:23 10° N 23:17:34 41° ENE 23:21:43 10° SE
SL-16 R/B 2.6 23:11:32 10° SSE 23:17:48 75° WSW 23:24:07 10° NNW
IDEFIX/ARIANE 42P 3.6 23:13:39 10° NNE 23:18:35 40° E 23:23:29 10° SSE
USA 290 3.1 23:17:00 10° NNW 23:20:11 53° ENE 23:23:23 10° SE
Cosmos 1933 3.6 23:18:01 10° NNW 23:21:56 53° W 23:25:50 10° S
Thor Agena Rocket 3.7 23:18:08 10° NNE 23:23:24 73° WNW 23:28:34 10° SSW
Cosmos 2221 3.6 23:21:53 10° NNW 23:25:43 31° W 23:29:32 10° SSW
Cosmos 1937 Rocket 4.0 23:22:11 10° NNW 23:27:30 68° ENE 23:32:43 10° SE
Resurs 1-4 Rocket 2.2 23:24:32 10° NNE 23:29:54 87° ESE 23:35:14 10° SSW
FALCON 9 DEB 4.4 23:27:53 10° WSW 23:30:15 19° SSW 23:32:37 10° SSE
Cosmos 2082 Rocket 3.7 23:30:12 10° W 23:35:18 32° NW 23:40:25 10° NNE
ATLAS 5 CENTAUR R/B 1.5 23:31:44 10° WSW 23:35:38 78° NW 23:40:14 10° NE
Helios 1A 3.1 23:31:33 10° SSE 23:35:46 80° ENE 23:39:58 10° NNW
SL-4 R/B 4.0 23:34:48 10° SSE 23:36:34 13° SE 23:38:23 10° ESE
USA 276 3.4 23:35:53 10° WSW 23:37:59 18° SSW 23:40:04 10° SSE
SAR-Lupe-2 4.3 23:37:40 10° NNE 23:41:12 49° ESE 23:44:41 10° S
Cosmos 1833 4.3 23:39:10 10° SSW 23:44:46 73° ESE 23:50:22 10° NE
MOS 1 Rocket 3.9 23:40:29 10° S 23:45:17 49° W 23:50:24 10° NNW
USA 267 3.4 23:40:31 10° E 23:47:06 88° N 23:53:40 10° WNW
